Back to catalog

THOR DELTA 1 DEB

LostPO
NORAD 33514·DEBRIS·🇺🇸 United States

Launched Apr 1, 1971 from Vandenberg Space Force Base

Loading…

Next Passes (next 24 hours)

TLE

StaleSource: Space-Track

Epoch: Sep 24, 2018, 12:41 UTC

1 33514U 71024E   18267.52854242 +.00000857 +00000-0 +31163-2 0  9992
2 33514 088.1878 358.9813 0064682 088.1929 277.8907 12.92038317681223

Track THOR DELTA 1 DEB in real time with AllMySat

Download on the App Store